CAPE
0 0 0 0 0 0 0 0 0 0 0 0 0 0 0 193 425 293 102 19 6 0 0 5 0 0 16 27 29 43 60 135 63 56 182 162 153 207 230 237 280 452 409 348
0 0 0 0 0 0 0 0 0 0 0 0 0 0 13 190 395 364 173 53 27 1 0 0 0 0 0 10 19 35 39 106 159 92 104 167 181 198 245 285 313 515 498 96
0 0 0 0 0 0 0 0 0 0 0 0 0 8 105 435 437 465 294 108 11 2 0 0 0 0 0 0 0 0 19 55 184 54 76 108 126 170 225 253 352 629 566 168
0 0 0 0 0 0 0 0 0 0 0 0 0 0 4 275 386 459 355 198 73 6 0 0 0 5 0 5 0 0 0 24 133 62 78 87 134 183 250 245 434 608 790 659
0 0 0 0 0 0 0 0 0 0 0 0 0 0 0 115 390 378 412 326 183 55 0 0 0 0 0 0 0 0 0 7 63 90 54 40 76 149 145 202 429 531 777 837
0 0 0 0 0 0 0 0 0 0 0 0 0 0 0 0 44 101 323 407 315 188 89 47 0 2 1 0 0 0 0 0 20 85 92 60 45 74 118 128 224 415 707 800
0 0 0 0 0 0 0 0 0 0 0 0 0 0 0 0 0 0 17 173 418 304 205 109 25 12 15 28 20 0 0 0 5 1 93 75 28 65 78 77 88 170 370 675
0 0 0 0 0 0 0 0 0 0 0 0 0 0 0 0 0 0 0 64 259 387 299 151 69 5 0 0 1 14 0 0 0 0 0 47 26 17 64 83 77 86 247 457
0 0 0 0 0 0 0 0 0 0 0 0 0 0 0 0 0 0 0 0 101 197 266 206 109 41 2 11 2 34 2 0 0 2 0 0 0 0 33 117 139 206 305 343
0 0 0 0 0 0 0 0 0 0 0 0 0 0 0 0 0 0 0 0 22 106 69 136 119 32 11 0 7 33 33 0 0 34 22 0 0 0 0 30 139 207 258 367
0 0 0 0 0 0 0 0 0 0 0 0 0 0 0 0 0 0 28 60 0 136 181 96 26 9 14 0 0 6 68 37 21 41 49 16 0 0 0 0 51 138 175 327
0 0 0 0 0 0 0 0 0 0 0 0 0 0 0 0 0 0 3 199 65 52 150 137 71 34 0 0 0 0 27 51 30 21 44 25 15 0 0 0 0 0 76 197
0 0 0 0 0 0 0 0 0 0 0 0 0 0 0 0 0 0 0 0 0 0 0 8 22 34 1 1 0 19 22 52 16 6 19 9 0 0 0 12 0 0 0 3
0 0 0 0 0 0 0 0 0 0 0 0 0 0 0 0 0 0 0 0 0 0 0 0 0 0 0 1 0 18 15 15 29 29 9 5 3 0 0 0 0 0 0 0
0 0 0 0 0 0 0 0 0 0 0 0 0 0 0 0 0 0 0 0 0 0 0 0 0 0 0 0 7 35 1 19 3 44 60 36 2 0 0 0 0 0 0 0
0 0 0 0 0 0 0 0 0 0 0 0 0 0 0 0 0 0 0 0 0 0 0 0 0 0 0 0 0 0 20 0 21 38 64 141 85 20 0 0 0 0 0 0
0 0 0 0 0 0 0 0 0 0 0 0 0 0 0 0 0 0 0 0 0 0 0 0 0 0 0 0 0 0 0 51 3 41 78 62 150 152 102 29 0 0 0 0
0 0 0 0 0 0 0 0 0 0 0 0 0 0 0 0 0 0 0 0 0 0 0 0 0 0 0 0 0 0 0 27 52 0 88 113 96 138 186 171 43 3 0 0
0 0 0 0 0 0 0 0 0 0 0 0 0 0 0 0 0 0 0 0 0 0 0 0 0 0 0 0 0 0 0 0 39 82 72 327 201 173 188 232 299 166 10 0
0 0 0 0 0 0 0 0 0 0 0 0 0 0 0 0 0 0 0 0 0 0 0 0 0 0 0 0 0 0 0 0 0 53 170 20 222 521 405 305 340 368 269 126
0 0 0 0 0 0 0 0 0 0 0 0 0 1 1 1 0 0 0 0 0 0 0 0 0 0 0 0 0 0 0 0 0 0 38 94 0 26 698 686 492 460 460 414
0 0 0 0 0 0 0 0 0 0 0 0 0 0 0 0 0 0 0 0 0 0 0 0 0 0 0 0 0 0 0 0 1 0 0 0 38 26 11 512 953 741 644 610
0 0 0 0 0 0 0 0 0 0 0 0 1 0 0 2 0 0 0 0 0 1 0 0 0 0 0 0 0 0 0 0 0 0 0 0 0 7 96 164 86 969 931 917
0 0 0 0 0 0 0 0 0 0 0 0 2 2 3 3 1 0 0 0 3 2 4 0 0 0 0 0 0 0 0 0 0 0 0 0 0 0 12 180 318 221 450 800
0 0 0 0 0 0 0 0 0 0 0 0 4 0 0 1 1 4 7 3 4 0 2 2 2 1 0 1 0 0 0 5 0 0 0 0 0 0 0 98 445 811 451 552
0 0 0 0 0 0 0 0 0 0 0 0 0 0 5 5 2 1 4 2 2 4 0 1 0 0 0 0 1 0 0 6 0 0 0 0 0 0 0 0 6 458 784 691
CIN
0 0 0 0 0 0 0 0 0 0 0 0 0 0 0 -92 -84 -103 -121 -168 -189 0 0 -51 -29 0 -111 -130 -125 -128 -114 -101 -104 -118 -87 -77 -65 -74 -74 -70 -53 -46 -51 -59
0 0 0 0 0 0 0 0 0 0 0 0 0 0 -47 -131 -90 -104 -138 -178 -150 -22 0 0 0 0 0 -111 -116 -127 -119 -112 -121 -128 -126 -89 -106 -83 -76 -61 -49 -38 -47 -82
0 0 0 0 0 0 0 0 0 0 0 0 0 -47 -146 -96 -91 -68 -96 -133 -145 -128 0 0 0 0 0 0 0 0 -125 -123 -119 -134 -124 -115 -98 -96 -78 -54 -55 -35 -47 -73
0 0 0 0 0 0 0 0 0 0 0 0 0 0 -27 -121 -117 -103 -92 -122 -116 -124 0 0 0 -133 0 -63 0 0 0 -134 -123 -120 -106 -79 -82 -101 -91 -51 -54 -37 -43 -40
0 0 0 0 0 0 0 0 0 0 0 0 0 0 0 -190 -139 -167 -133 -151 -136 -154 0 -6 0 0 -1 0 0 0 0 -144 -129 -115 -112 -96 -87 -80 -109 -84 -41 -43 -41 -43
0 0 0 0 0 0 0 0 0 0 0 0 0 0 0 0 -131 -165 -179 -168 -178 -188 -193 -171 0 -159 -13 0 0 0 0 0 -147 -130 -111 -99 -87 -93 -82 -92 -53 -52 -38 -37
0 0 0 0 0 0 0 0 0 0 0 0 0 0 0 0 0 0 -92 -163 -177 -201 -203 -227 -251 -246 -168 -179 -200 0 0 0 -138 -55 -128 -117 -109 -90 -94 -95 -95 -78 -50 -38
0 0 0 0 0 0 0 0 0 0 0 0 0 0 0 0 0 0 -3 -286 -215 -184 -166 -203 -231 -298 0 0 -19 -205 0 0 0 0 0 -145 -139 -122 -104 -99 -101 -106 -79 -46
0 0 0 0 0 0 0 0 0 0 0 0 0 0 0 0 0 0 0 0 -286 -285 -226 -194 -218 -231 -56 -275 -35 -223 -23 0 0 -37 0 0 0 0 -129 -107 -115 -79 -82 -71
0 0 0 0 0 0 0 0 0 0 0 0 0 0 0 0 0 0 0 0 -318 -327 -312 -222 -195 -241 -184 0 -101 -230 -180 0 0 -236 -228 0 0 0 0 -113 -107 -95 -83 -78
0 0 0 0 0 0 0 0 0 0 0 0 0 0 0 0 0 0 -386 -372 0 -349 -298 -280 -259 -259 -200 0 0 -72 -203 -179 -215 -234 -224 -162 0 0 0 0 -127 -121 -94 -81
0 0 0 0 0 0 0 0 0 0 0 0 0 0 0 0 0 0 -21 -253 -412 -419 -307 -269 -252 -243 0 0 0 0 -231 -219 -228 -207 -207 -186 -157 0 0 0 0 -2 -132 -111
0 0 0 0 0 0 0 0 0 0 0 0 0 0 0 0 0 0 0 0 0 0 0 -351 -249 -266 -38 -49 0 -243 -229 -203 -213 -221 -222 -212 -6 0 0 -102 0 0 0 -108
0 0 0 0 0 0 0 0 0 0 0 0 0 0 0 0 0 0 0 0 0 0 0 0 0 0 0 -66 0 -222 -216 -150 -101 -179 -198 -179 -203 0 0 0 0 0 0 0
0 0 0 0 0 0 0 0 0 0 0 0 0 0 0 0 0 0 0 0 0 0 0 0 0 0 0 0 -65 -237 -79 -246 -36 -208 -204 -214 -24 0 0 0 0 0 0 0
0 0 0 0 0 0 0 0 0 0 0 0 0 0 0 0 0 0 0 0 0 0 0 0 0 0 0 0 0 0 -268 -6 -304 -273 -259 -233 -215 -195 -5 0 0 0 0 0
0 0 0 0 0 0 0 0 0 0 0 0 0 0 0 0 0 0 0 0 0 0 0 0 0 0 0 0 0 0 0 -324 -186 -238 -255 -249 -208 -206 -212 -241 0 0 0 0
0 0 0 0 0 0 0 0 0 0 0 0 0 0 0 0 0 0 0 0 0 0 0 0 0 0 0 0 0 0 0 -302 -303 0 -226 -202 -225 -189 -197 -196 -231 -163 0 0
0 0 0 0 0 0 0 0 0 0 0 0 0 0 0 0 0 0 0 0 0 0 0 0 0 0 0 0 0 0 0 0 -218 -225 -192 -83 -158 -174 -181 -182 -200 -234 -224 0
0 0 0 0 0 0 0 0 0 0 0 0 0 0 0 0 0 0 0 0 0 0 0 0 0 0 0 0 0 0 0 0 0 -152 -100 -224 -163 -90 -155 -208 -208 -206 -196 -240
0 0 0 0 0 0 0 0 0 0 0 0 0 0 0 0 0 0 0 0 0 0 0 0 0 0 0 0 0 0 0 0 0 0 -80 -164 0 -212 -66 -97 -146 -166 -164 -156
0 0 0 0 0 0 0 0 0 0 0 0 0 0 0 0 0 0 0 0 0 0 0 0 0 0 0 0 0 0 0 0 -34 0 0 0 -252 -325 -401 -133 -57 -87 -108 -123
0 0 0 0 0 0 0 0 0 0 0 0 -2 -1 -1 -2 0 0 0 0 0 -5 0 0 0 0 0 0 0 0 0 0 0 0 0 0 0 -75 -266 -259 -333 -35 -39 -73
0 0 0 0 0 0 0 0 0 0 0 -1 0 -3 -7 -1 0 -2 -3 0 0 -8 -3 0 0 0 0 0 0 0 0 0 0 0 0 0 0 0 -409 -242 -162 -213 -139 -109
0 0 0 0 0 0 0 0 0 0 0 0 -9 -1 0 -1 0 -1 0 0 0 0 -6 -2 0 0 0 0 0 0 0 -1 0 0 0 0 0 0 0 -272 -90 -28 -191 -185
0 0 0 0 0 0 0 0 0 0 0 0 -6 0 -8 -5 -1 -1 0 0 0 0 0 0 0 0 0 0 0 0 0 -1 0 0 0 0 0 0 0 0 -373 -130 -96 -144
Wind_Speed
18 20 22 20 18 21 19 19 20 20 19 19 25 27 26 18 17 3 3 10 11 19 21 21 24 17 12 8 7 34 35 33 33 32 30 29 27 25 23 23 22 20 20 20
19 26 21 19 21 21 20 21 23 22 17 19 23 25 23 14 9 4 10 23 9 8 16 20 24 18 16 15 36 37 37 34 32 32 29 28 27 25 24 24 23 21 20 20
23 22 19 19 20 20 21 22 23 24 24 19 19 20 18 18 16 13 9 5 9 14 16 22 25 19 15 20 32 36 37 36 32 30 30 21 18 20 22 24 23 22 21 20
22 17 20 21 23 21 25 20 20 23 23 23 19 23 20 20 22 20 11 5 7 10 10 17 22 20 16 25 26 34 36 36 35 31 29 27 29 29 27 25 24 23 22 21
23 21 21 24 23 21 22 17 21 22 23 24 21 20 20 18 31 35 13 5 8 9 13 12 19 21 14 13 30 22 18 32 36 31 28 27 27 29 27 26 26 23 22 21
20 16 18 21 22 23 15 16 18 19 20 26 23 19 21 19 25 29 28 10 8 9 10 10 15 17 15 12 12 16 14 24 34 29 32 29 26 29 30 28 26 26 23 22
20 21 19 18 21 19 20 19 24 26 26 26 20 19 18 21 22 28 29 20 15 11 11 13 14 16 18 27 20 12 15 27 21 32 35 33 29 28 31 31 29 28 26 24
25 26 21 19 21 21 21 20 22 27 28 25 20 23 19 20 20 19 20 14 6 13 22 17 15 20 19 21 21 18 15 26 15 32 37 36 33 32 32 33 32 30 28 27
20 21 18 17 16 19 21 24 22 20 20 24 26 24 23 23 21 21 20 21 10 32 27 21 23 17 18 17 23 21 20 43 16 20 36 37 34 33 33 34 32 31 29 29
16 18 16 17 18 15 19 19 23 23 27 26 23 24 27 25 25 25 23 23 27 30 35 29 29 15 16 20 21 17 23 45 32 17 22 39 36 35 33 32 35 33 30 30
15 16 18 16 17 22 21 23 22 21 23 29 27 26 22 24 24 25 24 23 22 24 29 30 30 24 24 27 27 29 29 33 33 32 29 38 40 39 39 33 31 33 32 31
16 14 18 16 15 14 10 18 22 28 28 25 27 26 19 20 21 21 20 18 14 13 17 20 21 21 22 27 28 28 32 34 33 33 32 39 39 36 41 34 29 25 28 32
16 16 19 22 23 18 18 19 18 20 23 28 29 27 20 20 19 19 17 16 14 12 13 14 14 17 21 23 27 29 30 35 34 33 33 35 37 38 39 39 37 32 28 29
14 17 19 25 22 20 22 22 20 20 28 28 27 26 23 21 19 18 17 16 15 13 13 13 14 16 15 18 23 31 33 31 31 32 36 36 37 40 41 35 32 38 37 34
17 20 19 18 19 21 23 24 25 25 23 29 26 27 23 21 18 17 17 16 15 15 15 15 17 18 19 20 21 25 31 36 31 29 30 32 35 35 37 38 35 32 36 42
17 17 16 19 20 22 26 28 28 28 27 28 28 29 22 19 20 19 18 18 18 18 18 19 20 22 22 23 25 25 25 30 34 30 32 36 32 31 31 32 35 34 33 36
18 17 19 22 20 19 24 24 25 27 26 29 34 29 27 28 27 26 25 21 21 22 23 23 23 25 26 27 27 27 27 28 32 35 34 27 31 31 32 32 31 33 34 33
17 18 19 24 22 30 19 19 20 25 25 26 27 30 31 33 35 35 27 26 26 27 29 29 28 28 29 30 29 29 28 27 28 30 32 31 32 34 32 32 33 32 31 30
17 16 20 22 23 22 21 22 24 26 29 25 29 34 36 38 39 34 25 29 33 35 34 35 34 33 33 32 31 30 29 27 27 25 29 33 31 34 33 30 31 33 31 31
16 17 19 20 24 27 20 20 21 21 36 26 29 33 36 39 48 44 39 43 44 41 40 41 40 38 36 34 33 32 30 28 27 26 28 32 34 35 33 32 32 30 31 32
19 20 19 20 24 24 18 22 20 29 30 29 29 34 38 42 44 51 51 52 49 48 48 45 44 43 41 38 37 36 34 29 31 28 27 29 31 34 37 34 30 29 29 31
17 17 16 17 21 25 16 20 23 26 29 31 34 35 41 44 47 50 54 54 53 53 50 48 48 48 45 41 39 39 37 35 34 32 30 30 30 31 35 34 32 30 27 26
16 14 16 13 18 16 16 19 19 22 26 30 33 35 39 43 46 49 52 55 54 54 53 50 50 52 50 47 43 43 41 38 37 35 32 30 31 31 33 36 35 30 28 28
15 12 16 19 17 18 16 17 17 19 22 24 30 35 37 43 42 46 50 51 53 53 52 51 51 53 55 50 49 48 44 40 39 37 37 33 31 32 33 33 35 35 33 28
13 11 14 20 27 25 15 11 15 20 24 27 30 32 36 40 41 43 44 47 50 52 52 52 53 54 56 55 55 52 47 43 43 41 39 37 33 35 34 34 35 35 37 35
9 10 10 15 13 17 16 15 16 19 24 29 33 35 35 39 40 41 43 41 45 50 51 53 55 56 56 56 57 55 50 46 46 46 42 40 38 38 38 37 36 34 39 40
Wind_Direction
247 247 244 250 257 261 265 262 263 266 271 275 256 255 250 265 258 51 151 141 149 156 156 156 157 152 154 206 180 171 171 175 171 192 175 184 190 195 192 182 183 191 194 189
249 247 249 252 259 260 263 262 260 267 274 278 270 262 267 270 264 181 134 157 151 151 158 160 159 158 159 158 174 184 190 178 168 178 177 196 193 204 201 189 195 196 203 197
246 256 245 251 257 258 261 263 261 261 268 279 276 270 283 270 264 268 268 228 159 156 163 165 164 162 165 162 169 176 179 181 174 174 190 235 237 229 213 201 198 187 197 198
255 258 241 251 255 258 258 266 267 264 264 261 279 264 274 266 253 262 264 172 176 174 183 171 168 167 168 166 167 174 179 180 181 173 169 163 176 185 199 196 200 186 185 194
250 247 250 250 255 258 263 267 262 264 266 265 267 269 270 276 231 206 263 211 172 174 175 192 176 172 182 184 171 169 171 174 184 174 167 164 167 196 203 202 210 204 202 200
253 265 259 257 260 256 265 265 267 268 266 259 259 267 270 271 252 251 194 195 191 180 187 216 185 184 190 212 204 235 205 169 180 172 179 174 169 177 205 214 218 206 212 212
255 257 264 267 259 260 256 256 255 254 254 256 261 262 273 277 278 263 258 190 252 229 226 230 183 187 186 175 175 196 192 175 173 180 188 187 178 175 185 202 214 214 211 208
247 249 259 268 259 256 250 248 253 253 251 251 258 259 262 286 284 304 280 283 207 199 245 244 232 176 182 181 180 181 206 179 188 181 194 197 189 189 193 206 212 211 206 201
254 257 266 272 271 260 253 250 256 262 266 252 254 263 260 289 288 296 303 270 269 189 241 244 243 183 180 188 179 181 225 220 223 182 192 198 194 191 195 218 220 217 212 208
270 253 273 268 270 279 260 261 250 254 251 252 255 257 261 277 282 287 295 282 256 241 237 245 243 238 225 240 238 228 243 218 240 226 209 204 198 196 192 193 216 223 227 214
279 270 269 271 273 263 257 257 258 256 258 248 252 257 278 280 285 285 291 294 275 254 245 243 244 251 248 244 244 245 246 244 242 244 246 233 226 218 216 195 190 203 226 221
286 277 264 258 272 290 287 268 258 251 251 257 256 259 289 292 294 296 299 310 312 285 264 256 253 250 252 246 246 247 246 244 245 245 247 238 237 242 220 198 191 186 190 227
282 276 259 258 266 276 272 277 275 261 258 254 252 254 286 295 304 310 306 310 313 309 286 274 269 259 254 254 250 248 248 245 246 247 248 248 247 245 242 242 246 197 193 194
293 281 273 261 264 268 266 273 277 267 254 254 256 258 272 285 298 307 312 314 315 314 304 287 279 273 274 268 259 250 250 252 252 252 251 252 251 247 245 253 256 248 235 202
289 279 279 279 278 275 270 271 272 265 262 257 257 260 269 281 289 300 305 310 316 310 303 295 285 284 283 274 271 265 255 249 254 255 255 255 255 255 254 253 255 258 253 244
294 282 284 278 280 277 272 271 269 267 267 264 263 262 276 281 285 291 299 302 304 305 305 300 290 287 285 282 279 277 273 259 255 259 260 256 257 256 256 257 256 258 259 257
296 291 285 276 284 282 275 275 270 267 271 268 261 266 276 272 278 280 281 290 294 297 296 297 294 287 282 281 281 281 281 273 266 261 261 260 256 256 257 258 259 258 259 260
300 296 292 280 282 269 280 290 287 275 275 275 272 272 274 276 276 276 273 280 286 291 290 289 291 290 288 284 282 282 283 286 284 270 263 258 254 256 258 258 258 260 260 261
303 301 292 287 281 284 284 285 284 281 275 283 277 276 277 278 277 273 274 280 282 283 283 282 285 286 287 285 285 288 286 291 291 281 267 258 259 257 259 260 259 260 261 263
321 311 298 294 285 280 291 295 299 293 277 289 287 284 281 280 266 264 274 280 279 280 279 279 279 281 282 284 285 285 289 291 291 282 272 267 261 259 260 261 262 262 262 263
308 303 301 297 288 288 298 298 305 283 285 296 296 290 286 278 274 273 277 276 277 277 277 277 275 274 277 281 281 278 280 280 274 280 282 278 266 263 259 262 264 263 264 265
309 310 319 314 292 288 310 311 298 299 302 299 297 296 291 286 282 279 275 275 275 274 276 275 272 269 273 277 276 274 271 275 271 273 280 278 273 270 263 262 262 262 263 265
322 326 325 328 315 321 332 324 328 322 315 308 302 300 299 294 288 283 279 275 274 273 273 273 271 268 268 271 272 269 269 271 272 271 274 276 280 275 268 263 263 264 262 264
334 344 329 325 329 325 331 339 338 332 327 327 314 306 306 302 297 290 284 278 274 273 272 272 271 268 265 268 267 266 270 269 272 273 273 278 282 273 270 272 266 263 263 264
335 347 339 320 303 313 337 355 351 337 328 322 320 314 313 312 305 298 293 285 278 274 272 271 270 268 266 266 264 265 267 267 266 269 271 273 276 270 271 274 272 267 262 262
335 340 340 339 352 338 350 356 351 343 335 326 318 314 315 317 313 306 298 295 288 277 274 270 270 269 268 265 263 262 265 265 262 264 267 268 269 268 270 273 272 272 265 264